Weather in Nizhnyaya Poltavka

Russia / Amur Oblast     49°42′47″N   128°14′13″E
temp.,
°C
wind,
m/s
gust,
m/s
humid.,
%
clouds,
%
prec.,
mm/h
press.,
hPa
HPBL,
m
19 september, sun
sun1900:00+8nw2259100 0.0 101919
03:00+9wsw2257100 0.0 101916
06:00+7w367098 0.0 1019113
09:00+11wsw34630 0.0 1020465
12:00+15wnw45510 0.0 10181397
15:00+16nnw35381 0.0 10172047
18:00+12ne22540 0.0 101810
21:00+9sw22540 0.0 102010
20 september, mon
mon2000:00+7w33720 0.0 102027
03:00+6sw33890 0.0 102032
06:00+6ssw22880 0.0 102016
09:00+11ssw46671 0.0 1019328
12:00+16sw454818 0.0 1017885
15:00+18ssw454293 0.0 10151098
18:00+13ssw2259100 0.0 101413
21:00+11s1160100 0.0 101410
21 september, tue
tue2100:00+9e2268100 0.0 101312
03:00+9ene3372100 0.0 101240
06:00+8ene3670100 0.0 1012104
09:00+11e4862100 0.0 1011324
12:00+16e5754100 0.0 1010788
15:00+16e5762100 0.0 1008898
18:00+14e3774100 0.0 1008177
21:00+12e3982100 0.0 1009259
22 september, wed
wed2200:00+11ene3787100 0.0 1009243
03:00+11ne3791100 0.6 1009246
06:00+11ne3796100 2.9 1010224
09:00+11ne3797100 7.5 1011242
12:00+11e3697100 4.9 1013402
15:00+11e2495100 6.3 1014273
18:00+11ne2396100 0.8 1016112
21:00+11nne2290100 0.9 101737
23 september, thu
thu2300:00+10nne3588100 0.0 101898
03:00+8e22920 0.0 101920
06:00+7ene22920 0.0 102116
09:00+11e34735 0.0 1021279
12:00+15ese345712 0.0 1021774
15:00+17ese345515 0.0 10211088
18:00+12ese48725 0.0 1022157
21:00+10se377469 0.0 1023101